Belize, Belize

10:32 PM CST on February 23, 2018 (GMT -0600)
Philip S W Goldson International

Weather History for MZBZ - November, 2010

Change the Weather History Date:

Thursday, November 25, 2010

  Actual Average Record
Temperature  
Mean Temperature 78 °F -  
Max Temperature 86 °F 82 °F 89 °F (2014)
Min Temperature 71 °F 69 °F 61 °F (2012)
Cooling Degree Days 14    
Growing Degree Days 28 (Base 50)    
Moisture  
Dew Point 73 °F    
Average Humidity 82    
Maximum Humidity 100    
Minimum Humidity 56    
Precipitation  
Precipitation 0.00 in 0.23 in - ()
Sea Level Pressure  
Sea Level Pressure 29.90 in    
Wind  
Wind Speed 2 mph ()    
Max Wind Speed 8 mph    
Max Gust Speed -    
Visibility 7.2 miles    
Events Fog    
Averages and records for this station are not official NWS values.
T = Trace of Precipitation, MM = Missing Value Source: Averaged Metar Reports

Daily Weather History Graph

Daily Weather History Graph

Search for Another Location

Airport or City:

Trip Planner

Search our weather history database for the weather conditions in past years. The results will help you decide how hot, cold, wet, or windy it might be!

Date:

Astronomy

Nov. 25, 2010 Rise Set
Actual Time 6:03 AM CST 5:16 PM CST
Civil Twilight 5:40 AM CST 5:39 PM CST
Nautical Twilight 5:14 AM CST 6:06 PM CST
Astronomical Twilight 4:47 AM CST 6:32 PM CST
Moon 9:09 PM CST (11/25) 9:33 AM CST (11/25)
Length of Visible Light 11h 58m
Length of Day
11h 12m
Waning Gibbous, 82% of the Moon is Illuminated
Nov 25
Waning Gibbous
Nov 28
Last Quarter
Dec 5
New
Dec 13
First Quarter
Dec 21
Full

Hourly Weather History & Observations

Time (CST) Temp. Heat Index Dew Point Humidity Pressure Visibility Wind Dir Wind Speed Gust Speed Precip Events Conditions
12:00 AM 73 °F - 71 °F 91% 29.92 in 12 mi Calm Calm - -  
12:00 AM 73.4 °F - 71.6 °F 94% 29.92 in 6.2 mi Calm Calm - N/A   Partly Cloudy
3:00 AM 72 °F - 71 °F 94% 29.89 in 12 mi Calm Calm - -   Mostly Cloudy
3:00 AM 71.6 °F - 71.6 °F 100% 29.89 in 6.2 mi Calm Calm - N/A   Mostly Cloudy
6:00 AM 71 °F - 70 °F 95% 29.91 in 12 mi Calm Calm - -  
6:00 AM 71.6 °F - 69.8 °F 94% 29.89 in 6.2 mi Calm Calm - N/A   Partly Cloudy
6:35 AM 71.6 °F - 69.8 °F 94% 29.92 in 1.6 mi Calm Calm - N/A Fog Fog
7:00 AM 71.6 °F - 71.6 °F 100% 29.92 in 0.5 mi Calm Calm - N/A Fog Fog
7:20 AM 71.6 °F - 71.6 °F 100% 29.92 in 1.9 mi Calm Calm - N/A   Scattered Clouds
9:00 AM 80 °F - 74 °F 79% 29.95 in 12 mi Calm Calm - -   Partly Cloudy
9:00 AM 80.6 °F 86.2 °F 75.2 °F 84% 29.95 in 6.2 mi Calm Calm - N/A   Partly Cloudy
10:00 AM 84.2 °F 90.9 °F 73.4 °F 70% 29.95 in 6.2 mi East 6.9 mph - N/A   Scattered Clouds
11:00 AM 86.0 °F 93.4 °F 73.4 °F 66% 29.93 in 6.2 mi East 6.9 mph - N/A   Scattered Clouds
12:00 PM 86 °F - 72 °F 56% 29.91 in 12 mi SE 8.1 mph - -   Partly Cloudy
12:00 PM 86.0 °F 93.4 °F 73.4 °F 66% 29.90 in 6.2 mi SE 8.1 mph - N/A   Scattered Clouds
1:00 PM 86.0 °F 93.4 °F 73.4 °F 66% 29.88 in 6.2 mi ESE 6.9 mph - N/A   Scattered Clouds
2:00 PM 84.2 °F 90.9 °F 73.4 °F 70% 29.87 in 6.2 mi SE 6.9 mph - N/A   Scattered Clouds
3:00 PM 83 °F - 74 °F 66% 29.86 in 12 mi ESE 6.9 mph - -   Partly Cloudy
3:00 PM 84.2 °F 90.9 °F 73.4 °F 70% 29.86 in 6.2 mi ESE 6.9 mph - N/A   Scattered Clouds
4:00 PM 82.4 °F 88.2 °F 73.4 °F 74% 29.85 in 6.2 mi SE 5.8 mph - N/A   Scattered Clouds
5:00 PM 80.6 °F 85.4 °F 73.4 °F 79% 29.86 in 6.2 mi ESE 5.8 mph - N/A   Scattered Clouds
6:00 PM 79 °F - 74 °F 79% 29.88 in 12 mi ESE 4.6 mph - -  
6:00 PM 78.8 °F - 73.4 °F 83% 29.87 in 6.2 mi ESE 4.6 mph - N/A   Mostly Cloudy
7:00 PM 78.8 °F - 73.4 °F 83% 29.89 in 6.2 mi East 3.5 mph - N/A   Partly Cloudy
9:00 PM 78.8 °F - 75.2 °F 89% 29.90 in 6.2 mi ESE 4.6 mph - N/A   Partly Cloudy